date,time,SUV Intensity [MED/Hr],UV Index,Daily total [MED],Since Last [MED]
08/07/2023,23:58:43,0.002,0.0,6.04,6.04
08/07/2023,23:59:44,0.002,0.0,6.04,0.0
09/07/2023,00:00:43,0.000,0.0,0.0,-6.04
09/07/2023,00:01:44,0.000,0.0,0.0,0.0
09/07/2023,00:02:43,0.000,0.0,0.0,0.0
09/07/2023,00:03:43,0.000,0.0,0.0,0.0
09/07/2023,00:04:43,0.000,0.0,0.0,0.0
09/07/2023,00:05:43,0.000,0.0,0.0,0.0
09/07/2023,00:06:43,0.000,0.0,0.0,0.0
09/07/2023,00:07:44,0.000,0.0,0.0,0.0
09/07/2023,00:08:43,-0.000,0.0,0.0,0.0
09/07/2023,00:09:43,0.000,0.0,0.0,0.0
09/07/2023,00:10:43,0.000,0.0,0.0,0.0
09/07/2023,00:11:44,0.000,0.0,0.0,0.0
09/07/2023,00:12:43,0.000,0.0,0.0,0.0
09/07/2023,00:13:43,0.000,0.0,0.0,0.0
09/07/2023,00:14:43,-0.001,0.0,0.0,0.0
09/07/2023,00:15:43,0.000,0.0,0.0,0.0
09/07/2023,00:16:43,0.000,0.0,0.0,0.0
09/07/2023,00:17:43,0.000,0.0,0.0,0.0
09/07/2023,00:18:43,0.000,0.0,0.0,0.0
09/07/2023,00:19:44,0.000,0.0,0.0,0.0
09/07/2023,00:20:43,0.000,0.0,0.0,0.0
09/07/2023,00:21:43,0.000,0.0,0.0,0.0
09/07/2023,00:22:43,0.000,0.0,0.0,0.0
09/07/2023,00:23:43,0.000,0.0,0.0,0.0
09/07/2023,00:24:43,0.000,0.0,0.0,0.0
09/07/2023,00:25:44,0.000,0.0,0.0,0.0
09/07/2023,00:26:43,0.000,0.0,0.0,0.0
09/07/2023,00:27:43,0.000,0.0,0.0,0.0
09/07/2023,00:28:43,0.000,0.0,0.0,0.0
09/07/2023,00:29:44,0.000,0.0,0.0,0.0
09/07/2023,00:30:43,0.000,0.0,0.0,0.0
09/07/2023,00:31:43,0.000,0.0,0.0,0.0
09/07/2023,00:32:43,0.000,0.0,0.0,0.0
09/07/2023,00:33:43,0.000,0.0,0.0,0.0
09/07/2023,00:34:44,0.000,0.0,0.0,0.0
09/07/2023,00:35:43,0.000,0.0,0.0,0.0
09/07/2023,00:36:44,0.000,0.0,0.0,0.0
09/07/2023,00:37:43,-0.001,0.0,0.0,0.0
09/07/2023,00:38:44,-0.000,0.0,0.0,0.0
09/07/2023,00:39:43,0.000,0.0,0.0,0.0
09/07/2023,00:40:43,-0.000,0.0,0.0,0.0
09/07/2023,00:41:43,0.000,0.0,0.0,0.0
09/07/2023,00:42:43,0.000,0.0,0.0,0.0
09/07/2023,00:43:44,0.000,0.0,0.0,0.0
09/07/2023,00:44:43,0.000,0.0,0.0,0.0
09/07/2023,00:45:43,0.000,0.0,0.0,0.0
09/07/2023,00:46:43,0.000,0.0,0.0,0.0
09/07/2023,00:47:44,0.000,0.0,0.0,0.0
09/07/2023,00:48:43,0.000,0.0,0.0,0.0
09/07/2023,00:49:44,0.000,0.0,0.0,0.0
09/07/2023,00:50:43,-0.000,0.0,0.0,0.0
09/07/2023,00:51:44,0.000,0.0,0.0,0.0
09/07/2023,00:52:44,0.000,0.0,0.0,0.0
09/07/2023,00:53:43,-0.001,0.0,0.0,0.0
09/07/2023,00:54:43,0.000,0.0,0.0,0.0
09/07/2023,00:55:43,0.000,0.0,0.0,0.0
09/07/2023,00:56:43,0.000,0.0,0.0,0.0
09/07/2023,00:57:43,0.000,0.0,0.0,0.0
09/07/2023,00:58:44,0.000,0.0,0.0,0.0
09/07/2023,00:59:43,0.000,0.0,0.0,0.0
09/07/2023,01:00:43,-0.000,0.0,0.0,0.0
09/07/2023,01:01:43,0.000,0.0,0.0,0.0
09/07/2023,01:02:43,-0.001,0.0,0.0,0.0
09/07/2023,01:03:44,0.000,0.0,0.0,0.0
09/07/2023,01:04:43,0.000,0.0,0.0,0.0
09/07/2023,01:05:43,0.000,0.0,0.0,0.0
09/07/2023,01:06:43,0.000,0.0,0.0,0.0
09/07/2023,01:07:44,0.000,0.0,0.0,0.0
09/07/2023,01:08:43,0.000,0.0,0.0,0.0
09/07/2023,01:09:43,0.000,0.0,0.0,0.0
09/07/2023,01:10:44,0.000,0.0,0.0,0.0
09/07/2023,01:11:43,0.000,0.0,0.0,0.0
09/07/2023,01:12:43,0.000,0.0,0.0,0.0
09/07/2023,01:13:44,0.000,0.0,0.0,0.0
09/07/2023,01:14:44,0.000,0.0,0.0,0.0
09/07/2023,01:15:44,0.000,0.0,0.0,0.0
09/07/2023,01:16:47,0.000,0.0,0.0,0.0
09/07/2023,01:17:44,0.000,0.0,0.0,0.0
09/07/2023,01:18:43,0.000,0.0,0.0,0.0
09/07/2023,01:19:43,0.000,0.0,0.0,0.0
09/07/2023,01:20:43,-0.001,0.0,0.0,0.0
09/07/2023,01:21:43,0.000,0.0,0.0,0.0
09/07/2023,01:22:43,0.000,0.0,0.0,0.0
09/07/2023,01:23:43,0.000,0.0,0.0,0.0
09/07/2023,01:24:44,0.000,0.0,0.0,0.0
09/07/2023,01:25:43,0.000,0.0,0.0,0.0
09/07/2023,01:26:43,0.000,0.0,0.0,0.0
09/07/2023,01:27:42,0.000,0.0,0.0,0.0
09/07/2023,01:28:56,0.000,0.0,0.0,0.0
09/07/2023,01:30:45,0.000,0.0,0.0,0.0
09/07/2023,01:31:43,0.000,0.0,0.0,0.0
09/07/2023,01:32:43,0.000,0.0,0.0,0.0
09/07/2023,01:33:44,0.000,0.0,0.0,0.0
09/07/2023,01:34:43,0.000,0.0,0.0,0.0
09/07/2023,01:35:43,0.000,0.0,0.0,0.0
09/07/2023,01:36:43,0.000,0.0,0.0,0.0
09/07/2023,01:37:43,0.000,0.0,0.0,0.0
09/07/2023,01:38:43,0.000,0.0,0.0,0.0
09/07/2023,01:39:44,0.000,0.0,0.0,0.0
09/07/2023,01:40:43,0.000,0.0,0.0,0.0
09/07/2023,01:41:43,0.000,0.0,0.0,0.0
09/07/2023,01:43:06,0.000,0.0,0.0,0.0
09/07/2023,01:44:44,0.000,0.0,0.0,0.0
09/07/2023,01:45:43,0.000,0.0,0.0,0.0
09/07/2023,01:46:43,0.000,0.0,0.0,0.0
09/07/2023,01:47:44,0.000,0.0,0.0,0.0
09/07/2023,01:48:43,0.000,0.0,0.0,0.0
09/07/2023,01:49:44,0.000,0.0,0.0,0.0
09/07/2023,01:50:44,0.000,0.0,0.0,0.0
09/07/2023,01:51:43,0.000,0.0,0.0,0.0
09/07/2023,01:52:43,0.000,0.0,0.0,0.0
09/07/2023,01:53:43,0.000,0.0,0.0,0.0
09/07/2023,01:54:44,0.000,0.0,0.0,0.0
09/07/2023,01:55:43,0.000,0.0,0.0,0.0
09/07/2023,01:56:44,0.000,0.0,0.0,0.0
09/07/2023,01:57:43,0.000,0.0,0.0,0.0
09/07/2023,01:58:44,0.000,0.0,0.0,0.0
09/07/2023,01:59:44,0.000,0.0,0.0,0.0
09/07/2023,02:00:44,0.000,0.0,0.0,0.0
09/07/2023,02:01:43,0.000,0.0,0.0,0.0
09/07/2023,02:02:43,0.000,0.0,0.0,0.0
09/07/2023,02:03:43,0.000,0.0,0.0,0.0
09/07/2023,02:04:43,0.000,0.0,0.0,0.0
09/07/2023,02:05:43,0.000,0.0,0.0,0.0
09/07/2023,02:06:43,0.000,0.0,0.0,0.0
09/07/2023,02:07:44,0.000,0.0,0.0,0.0
09/07/2023,02:08:43,0.000,0.0,0.0,0.0
09/07/2023,02:09:43,0.000,0.0,0.0,0.0
09/07/2023,02:10:43,0.001,0.0,0.0,0.0
09/07/2023,02:11:44,0.001,0.0,0.0,0.0
09/07/2023,02:12:43,0.000,0.0,0.0,0.0
09/07/2023,02:13:44,0.001,0.0,0.0,0.0
09/07/2023,02:14:43,0.000,0.0,0.0,0.0
09/07/2023,02:15:44,0.001,0.0,0.0,0.0
09/07/2023,02:16:43,0.001,0.0,0.0,0.0
09/07/2023,02:17:43,0.001,0.0,0.0,0.0
09/07/2023,02:18:44,0.001,0.0,0.0,0.0
09/07/2023,02:19:43,0.000,0.0,0.0,0.0
09/07/2023,02:20:47,0.001,0.0,0.0,0.0
09/07/2023,02:21:44,0.001,0.0,0.0,0.0
09/07/2023,02:22:43,0.001,0.0,0.0,0.0
09/07/2023,02:23:44,0.001,0.0,0.0,0.0
09/07/2023,02:24:43,0.001,0.0,0.0,0.0
09/07/2023,02:25:44,0.001,0.0,0.0,0.0
09/07/2023,02:26:43,0.001,0.0,0.0,0.0
09/07/2023,02:27:43,0.001,0.0,0.0,0.0
09/07/2023,02:28:43,0.001,0.0,0.0,0.0
09/07/2023,02:29:44,0.001,0.0,0.0,0.0
09/07/2023,02:30:43,0.001,0.0,0.0,0.0
09/07/2023,02:31:44,0.001,0.0,0.0,0.0
09/07/2023,02:32:43,0.001,0.0,0.0,0.0
09/07/2023,02:33:44,0.000,0.0,0.0,0.0
09/07/2023,02:34:43,0.001,0.0,0.0,0.0
09/07/2023,02:35:44,0.001,0.0,0.0,0.0
09/07/2023,02:36:43,0.001,0.0,0.0,0.0
09/07/2023,02:37:43,0.001,0.0,0.0,0.0
09/07/2023,02:38:44,0.000,0.0,0.0,0.0
09/07/2023,02:39:43,0.001,0.0,0.0,0.0
09/07/2023,02:40:43,0.001,0.0,0.0,0.0
09/07/2023,02:41:43,0.000,0.0,0.0,0.0
09/07/2023,02:42:44,0.000,0.0,0.0,0.0
09/07/2023,02:43:43,0.001,0.0,0.0,0.0
09/07/2023,02:44:44,0.000,0.0,0.0,0.0
09/07/2023,02:45:43,0.000,0.0,0.0,0.0
09/07/2023,02:46:43,0.000,0.0,0.0,0.0
09/07/2023,02:47:43,0.000,0.0,0.0,0.0
09/07/2023,02:48:44,0.000,0.0,0.0,0.0
09/07/2023,02:49:43,0.000,0.0,0.0,0.0
09/07/2023,02:50:44,0.000,0.0,0.0,0.0
09/07/2023,02:51:43,0.000,0.0,0.0,0.0
09/07/2023,02:52:43,0.000,0.0,0.0,0.0
09/07/2023,02:53:44,0.000,0.0,0.0,0.0
09/07/2023,02:54:44,0.000,0.0,0.0,0.0
09/07/2023,02:55:43,0.000,0.0,0.0,0.0
09/07/2023,02:56:43,0.000,0.0,0.0,0.0
09/07/2023,02:57:44,0.000,0.0,0.0,0.0
09/07/2023,02:58:42,0.000,0.0,0.0,0.0
09/07/2023,02:59:44,0.000,0.0,0.0,0.0
09/07/2023,03:00:43,0.000,0.0,0.0,0.0
09/07/2023,03:01:43,0.000,0.0,0.0,0.0
09/07/2023,03:02:44,0.000,0.0,0.0,0.0
09/07/2023,03:03:44,0.000,0.0,0.0,0.0
09/07/2023,03:04:45,0.000,0.0,0.0,0.0
09/07/2023,03:05:44,0.000,0.0,0.0,0.0
09/07/2023,03:06:44,0.000,0.0,0.0,0.0
09/07/2023,03:07:43,0.000,0.0,0.0,0.0
09/07/2023,03:08:43,0.000,0.0,0.0,0.0
09/07/2023,03:09:43,0.000,0.0,0.0,0.0
09/07/2023,03:10:44,0.000,0.0,0.0,0.0
09/07/2023,03:11:43,0.000,0.0,0.0,0.0
09/07/2023,03:12:43,0.000,0.0,0.0,0.0
09/07/2023,03:13:44,0.000,0.0,0.0,0.0
09/07/2023,03:14:43,0.000,0.0,0.0,0.0
09/07/2023,03:15:44,0.000,0.0,0.0,0.0
09/07/2023,03:16:43,0.000,0.0,0.0,0.0
09/07/2023,03:17:43,0.001,0.0,0.0,0.0
09/07/2023,03:18:44,0.000,0.0,0.0,0.0
09/07/2023,03:19:43,0.001,0.0,0.0,0.0
09/07/2023,03:20:43,0.000,0.0,0.0,0.0
09/07/2023,03:21:44,0.001,0.0,0.0,0.0
09/07/2023,03:22:43,0.000,0.0,0.0,0.0
09/07/2023,03:23:44,0.000,0.0,0.0,0.0
09/07/2023,03:24:43,0.000,0.0,0.0,0.0
09/07/2023,03:25:43,0.001,0.0,0.0,0.0
09/07/2023,03:26:44,0.001,0.0,0.0,0.0
09/07/2023,03:27:43,0.001,0.0,0.0,0.0
09/07/2023,03:28:44,0.001,0.0,0.0,0.0
09/07/2023,03:29:44,0.001,0.0,0.0,0.0
09/07/2023,03:30:43,0.000,0.0,0.0,0.0
09/07/2023,03:31:43,0.000,0.0,0.0,0.0
09/07/2023,03:32:43,0.001,0.0,0.0,0.0
09/07/2023,03:33:43,0.001,0.0,0.0,0.0
09/07/2023,03:35:05,0.000,0.0,0.0,0.0
09/07/2023,03:36:44,0.001,0.0,0.0,0.0
09/07/2023,03:37:44,0.001,0.0,0.0,0.0
09/07/2023,03:38:44,0.001,0.0,0.0,0.0
09/07/2023,03:39:43,0.001,0.0,0.0,0.0
09/07/2023,03:40:44,0.001,0.0,0.0,0.0
09/07/2023,03:41:43,0.002,0.0,0.0,0.0
09/07/2023,03:42:43,0.001,0.0,0.0,0.0
09/07/2023,03:43:44,0.002,0.0,0.0,0.0
09/07/2023,03:44:42,0.002,0.0,0.0,0.0
09/07/2023,03:45:43,0.002,0.0,0.0,0.0
09/07/2023,03:46:43,0.001,0.0,0.0,0.0
09/07/2023,03:47:44,0.002,0.0,0.0,0.0
09/07/2023,03:48:43,0.003,0.0,0.0,0.0
09/07/2023,03:49:43,0.003,0.0,0.0,0.0
09/07/2023,03:50:44,0.002,0.0,0.0,0.0
09/07/2023,03:51:43,0.002,0.0,0.0,0.0
09/07/2023,03:52:43,0.002,0.0,0.0,0.0
09/07/2023,03:53:44,0.002,0.0,0.0,0.0
09/07/2023,03:54:44,0.002,0.0,0.0,0.0
09/07/2023,03:55:43,0.002,0.0,0.0,0.0
09/07/2023,03:56:44,0.002,0.0,0.0,0.0
09/07/2023,03:57:44,0.004,0.0,0.0,0.0
09/07/2023,03:58:44,0.002,0.0,0.0,0.0
09/07/2023,03:59:43,0.002,0.0,0.0,0.0
09/07/2023,04:00:44,0.003,0.0,0.0,0.0
09/07/2023,04:01:43,0.004,0.0,0.0,0.0
09/07/2023,04:02:44,0.003,0.0,0.0,0.0
09/07/2023,04:03:43,0.004,0.0,0.0,0.0
09/07/2023,04:04:44,0.002,0.0,0.0,0.0
09/07/2023,04:05:43,0.004,0.0,0.0,0.0
09/07/2023,04:06:43,0.003,0.0,0.0,0.0
09/07/2023,04:07:44,0.003,0.0,0.0,0.0
09/07/2023,04:08:43,0.003,0.0,0.0,0.0
09/07/2023,04:09:45,0.004,0.0,0.0,0.0
09/07/2023,04:10:44,0.004,0.0,0.0,0.0
09/07/2023,04:11:43,0.003,0.0,0.0,0.0
09/07/2023,04:12:43,0.004,0.0,0.0,0.0
09/07/2023,04:13:44,0.004,0.0,0.0,0.0
09/07/2023,04:14:43,0.004,0.0,0.0,0.0
09/07/2023,04:15:44,0.005,0.0,0.0,0.0
09/07/2023,04:16:43,0.005,0.0,0.0,0.0
09/07/2023,04:17:44,0.005,0.0,0.0,0.0
09/07/2023,04:18:43,0.006,0.0,0.0,0.0
09/07/2023,04:19:43,0.005,0.0,0.0,0.0
09/07/2023,04:20:44,0.008,0.0,0.0,0.0
09/07/2023,04:21:43,0.008,0.0,0.0,0.0
09/07/2023,04:22:44,0.008,0.0,0.0,0.0
09/07/2023,04:23:44,0.008,0.0,0.001,0.001
09/07/2023,04:24:43,0.008,0.0,0.001,0.0
09/07/2023,04:25:45,0.008,0.0,0.001,0.0
09/07/2023,04:26:44,0.009,0.0,0.001,0.0
09/07/2023,04:27:44,0.009,0.0,0.001,0.0
09/07/2023,04:28:43,0.009,0.0,0.001,0.0
09/07/2023,04:29:43,0.009,0.0,0.001,0.0
09/07/2023,04:30:44,0.009,0.0,0.002,0.001
09/07/2023,04:31:43,0.010,0.0,0.002,0.0
09/07/2023,04:32:43,0.010,0.0,0.002,0.0
09/07/2023,04:33:44,0.010,0.0,0.002,0.0
09/07/2023,04:34:44,0.010,0.0,0.002,0.0
09/07/2023,04:35:44,0.012,0.0,0.002,0.0
09/07/2023,04:36:44,0.012,0.0,0.003,0.001
09/07/2023,04:37:43,0.011,0.0,0.003,0.0
09/07/2023,04:38:44,0.012,0.0,0.003,0.0
09/07/2023,04:39:43,0.013,0.0,0.003,0.0
09/07/2023,04:40:44,0.013,0.0,0.003,0.0
09/07/2023,04:41:43,0.013,0.0,0.004,0.001
09/07/2023,04:42:44,0.013,0.0,0.004,0.0
09/07/2023,04:43:43,0.014,0.0,0.004,0.0
09/07/2023,04:44:43,0.015,0.0,0.004,0.0
09/07/2023,04:45:43,0.016,0.0,0.005,0.001
09/07/2023,04:46:44,0.015,0.0,0.005,0.0
09/07/2023,04:47:44,0.016,0.0,0.005,0.0
09/07/2023,04:48:43,0.017,0.0,0.005,0.0
09/07/2023,04:49:44,0.018,0.0,0.006,0.001
09/07/2023,04:50:44,0.018,0.0,0.006,0.0
09/07/2023,04:51:43,0.017,0.0,0.006,0.0
09/07/2023,04:52:44,0.017,0.0,0.007,0.001
09/07/2023,04:53:44,0.017,0.0,0.007,0.0
09/07/2023,04:54:44,0.015,0.0,0.007,0.0
09/07/2023,04:55:44,0.014,0.0,0.007,0.0
09/07/2023,04:56:43,0.013,0.0,0.008,0.001
09/07/2023,04:57:44,0.013,0.0,0.008,0.0
09/07/2023,04:58:43,0.013,0.0,0.008,0.0
09/07/2023,04:59:44,0.013,0.0,0.008,0.0
09/07/2023,05:00:43,0.014,0.0,0.008,0.0
09/07/2023,05:01:44,0.013,0.0,0.009,0.001
09/07/2023,05:02:43,0.015,0.0,0.009,0.0
09/07/2023,05:03:44,0.014,0.0,0.009,0.0
09/07/2023,05:04:44,0.014,0.0,0.009,0.0
09/07/2023,05:05:43,0.014,0.0,0.01,0.001
09/07/2023,05:06:44,0.016,0.0,0.01,0.0
09/07/2023,05:07:44,0.017,0.0,0.01,0.0
09/07/2023,05:08:43,0.019,0.0,0.01,0.0
09/07/2023,05:09:44,0.019,0.0,0.011,0.001
09/07/2023,05:10:44,0.021,0.0,0.011,0.0
09/07/2023,05:11:44,0.022,0.0,0.011,0.0
09/07/2023,05:12:44,0.023,0.0,0.012,0.001
09/07/2023,05:13:44,0.022,0.0,0.012,0.0
09/07/2023,05:14:43,0.023,0.0,0.013,0.001
09/07/2023,05:15:44,0.022,0.0,0.013,0.0
09/07/2023,05:16:43,0.021,0.0,0.013,0.0
09/07/2023,05:17:44,0.021,0.0,0.014,0.001
09/07/2023,05:18:43,0.022,0.0,0.014,0.0
09/07/2023,05:19:44,0.023,0.0,0.014,0.0
09/07/2023,05:20:43,0.023,0.0,0.015,0.001
09/07/2023,05:21:44,0.025,0.0,0.015,0.0
09/07/2023,05:22:43,0.026,0.0,0.016,0.001
09/07/2023,05:23:44,0.028,0.0,0.016,0.0
09/07/2023,05:24:43,0.030,0.0,0.017,0.001
09/07/2023,05:25:44,0.033,0.0,0.017,0.0
09/07/2023,05:26:44,0.035,0.0,0.018,0.001
09/07/2023,05:27:44,0.037,0.0,0.018,0.0
09/07/2023,05:28:43,0.040,0.0,0.019,0.001
09/07/2023,05:29:44,0.043,0.0,0.02,0.001
09/07/2023,05:30:44,0.045,0.0,0.02,0.0
09/07/2023,05:31:43,0.047,0.0,0.021,0.001
09/07/2023,05:32:43,0.049,0.0,0.022,0.001
09/07/2023,05:33:44,0.050,0.0,0.023,0.001
09/07/2023,05:34:43,0.051,0.0,0.024,0.001
09/07/2023,05:35:44,0.054,0.0,0.024,0.0
09/07/2023,05:36:44,0.053,0.0,0.025,0.001
09/07/2023,05:37:44,0.055,0.0,0.026,0.001
09/07/2023,05:38:44,0.056,0.0,0.027,0.001
09/07/2023,05:39:43,0.059,0.0,0.028,0.001
09/07/2023,05:40:44,0.060,0.0,0.029,0.001
09/07/2023,05:41:44,0.061,0.0,0.03,0.001
09/07/2023,05:42:44,0.062,0.0,0.031,0.001
09/07/2023,05:43:44,0.064,0.0,0.032,0.001
09/07/2023,05:44:47,0.065,0.0,0.033,0.001
09/07/2023,05:45:45,0.067,0.0,0.034,0.001
09/07/2023,05:46:43,0.068,0.0,0.036,0.002
09/07/2023,05:47:44,0.069,0.0,0.037,0.001
09/07/2023,05:48:44,0.070,0.0,0.038,0.001
09/07/2023,05:49:43,0.071,0.0,0.039,0.001
09/07/2023,05:50:44,0.072,0.0,0.04,0.001
09/07/2023,05:51:44,0.072,0.0,0.041,0.001
09/07/2023,05:52:43,0.071,0.0,0.043,0.002
09/07/2023,05:53:44,0.069,0.0,0.044,0.001
09/07/2023,05:54:44,0.070,0.0,0.045,0.001
09/07/2023,05:55:44,0.070,0.0,0.046,0.001
09/07/2023,05:56:44,0.069,0.0,0.047,0.001
09/07/2023,05:57:43,0.069,0.0,0.048,0.001
09/07/2023,05:58:44,0.070,0.0,0.05,0.002
09/07/2023,05:59:43,0.071,0.0,0.051,0.001
09/07/2023,06:00:43,0.072,0.0,0.052,0.001
09/07/2023,06:01:43,0.075,0.0,0.053,0.001
09/07/2023,06:03:06,0.080,0.0,0.055,0.002
09/07/2023,06:04:44,0.084,0.0,0.057,0.002
09/07/2023,06:05:43,0.083,0.0,0.058,0.001
09/07/2023,06:06:43,0.080,0.0,0.06,0.002
09/07/2023,06:07:44,0.073,0.0,0.061,0.001
09/07/2023,06:08:44,0.070,0.0,0.062,0.001
09/07/2023,06:09:43,0.067,0.0,0.063,0.001
09/07/2023,06:10:44,0.067,0.0,0.065,0.002
09/07/2023,06:11:43,0.067,0.0,0.066,0.001
09/07/2023,06:12:44,0.068,0.0,0.067,0.001
09/07/2023,06:13:44,0.067,0.0,0.068,0.001
09/07/2023,06:14:43,0.066,0.0,0.069,0.001
09/07/2023,06:15:44,0.065,0.0,0.07,0.001
09/07/2023,06:16:43,0.066,0.0,0.071,0.001
09/07/2023,06:17:44,0.065,0.0,0.072,0.001
09/07/2023,06:18:44,0.065,0.0,0.073,0.001
09/07/2023,06:19:44,0.067,0.0,0.075,0.002
09/07/2023,06:20:43,0.072,0.0,0.076,0.001
09/07/2023,06:21:44,0.077,0.0,0.077,0.001
09/07/2023,06:22:44,0.086,0.0,0.078,0.001
09/07/2023,06:23:44,0.093,0.0,0.08,0.002
09/07/2023,06:24:43,0.097,0.0,0.081,0.001
09/07/2023,06:25:44,0.101,0.0,0.083,0.002
09/07/2023,06:26:43,0.103,0.0,0.085,0.002
09/07/2023,06:27:44,0.105,0.0,0.086,0.001
09/07/2023,06:28:44,0.106,0.0,0.088,0.002
09/07/2023,06:29:44,0.109,0.0,0.09,0.002
09/07/2023,06:30:43,0.109,0.0,0.092,0.002
09/07/2023,06:31:43,0.110,0.0,0.094,0.002
09/07/2023,06:32:44,0.114,0.0,0.095,0.001
09/07/2023,06:33:43,0.118,0.0,0.097,0.002
09/07/2023,06:34:44,0.124,0.0,0.099,0.002
09/07/2023,06:35:44,0.129,0.0,0.102,0.003
09/07/2023,06:36:43,0.134,0.0,0.104,0.002
09/07/2023,06:37:44,0.133,0.0,0.106,0.002
09/07/2023,06:38:44,0.129,0.0,0.108,0.002
09/07/2023,06:39:44,0.124,0.0,0.11,0.002
09/07/2023,06:40:44,0.120,0.0,0.112,0.002
09/07/2023,06:41:44,0.120,0.0,0.114,0.002
09/07/2023,06:42:44,0.117,0.0,0.116,0.002
09/07/2023,06:43:44,0.116,0.0,0.118,0.002
09/07/2023,06:44:43,0.113,0.0,0.12,0.002
09/07/2023,06:45:44,0.111,0.0,0.122,0.002
09/07/2023,06:46:44,0.111,0.0,0.124,0.002
09/07/2023,06:47:44,0.113,0.0,0.126,0.002
09/07/2023,06:48:44,0.116,0.0,0.128,0.002
09/07/2023,06:49:44,0.118,0.0,0.13,0.002
09/07/2023,06:50:44,0.115,0.0,0.131,0.001
09/07/2023,06:51:44,0.114,0.0,0.133,0.002
09/07/2023,06:52:44,0.114,0.0,0.135,0.002
09/07/2023,06:53:44,0.113,0.0,0.137,0.002
09/07/2023,06:54:44,0.112,0.0,0.139,0.002
09/07/2023,06:55:44,0.111,0.0,0.141,0.002
09/07/2023,06:56:44,0.107,0.0,0.143,0.002
09/07/2023,06:57:44,0.104,0.0,0.145,0.002
09/07/2023,06:58:43,0.100,0.0,0.146,0.001
09/07/2023,06:59:44,0.094,0.0,0.148,0.002
09/07/2023,07:00:44,0.091,0.0,0.149,0.001
09/07/2023,07:01:43,0.086,0.0,0.151,0.002
09/07/2023,07:02:44,0.081,0.0,0.152,0.001
09/07/2023,07:03:43,0.076,0.0,0.154,0.002
09/07/2023,07:04:44,0.072,0.0,0.155,0.001
09/07/2023,07:05:44,0.069,0.0,0.156,0.001
09/07/2023,07:06:44,0.068,0.0,0.157,0.001
09/07/2023,07:07:44,0.071,0.0,0.158,0.001
09/07/2023,07:08:43,0.072,0.0,0.159,0.001
09/07/2023,07:09:44,0.072,0.0,0.161,0.002
09/07/2023,07:10:44,0.074,0.0,0.162,0.001
09/07/2023,07:11:44,0.072,0.0,0.163,0.001
09/07/2023,07:12:44,0.072,0.0,0.164,0.001
09/07/2023,07:13:44,0.073,0.0,0.165,0.001
09/07/2023,07:14:44,0.073,0.0,0.167,0.002
09/07/2023,07:15:44,0.070,0.0,0.168,0.001
09/07/2023,07:16:43,0.067,0.0,0.169,0.001
09/07/2023,07:17:44,0.061,0.0,0.17,0.001
09/07/2023,07:18:44,0.058,0.0,0.171,0.001
09/07/2023,07:19:43,0.055,0.0,0.172,0.001
09/07/2023,07:20:44,0.055,0.0,0.173,0.001
09/07/2023,07:21:43,0.057,0.0,0.174,0.001
09/07/2023,07:22:44,0.058,0.0,0.175,0.001
09/07/2023,07:23:44,0.059,0.0,0.176,0.001
09/07/2023,07:24:43,0.059,0.0,0.177,0.001
09/07/2023,07:25:44,0.058,0.0,0.178,0.001
09/07/2023,07:26:43,0.056,0.0,0.179,0.001
09/07/2023,07:27:44,0.055,0.0,0.18,0.001
09/07/2023,07:28:44,0.053,0.0,0.181,0.001
09/07/2023,07:29:44,0.052,0.0,0.181,0.0
09/07/2023,07:30:44,0.051,0.0,0.182,0.001
09/07/2023,07:31:44,0.052,0.0,0.183,0.001
09/07/2023,07:32:44,0.052,0.0,0.184,0.001
09/07/2023,07:33:43,0.051,0.0,0.185,0.001
09/07/2023,07:34:44,0.052,0.0,0.186,0.001
09/07/2023,07:35:44,0.053,0.0,0.187,0.001
09/07/2023,07:36:44,0.055,0.0,0.187,0.0
09/07/2023,07:37:44,0.061,0.0,0.188,0.001
09/07/2023,07:38:44,0.069,0.0,0.19,0.002
09/07/2023,07:39:44,0.077,0.0,0.191,0.001
09/07/2023,07:40:44,0.085,0.0,0.192,0.001
09/07/2023,07:41:44,0.095,0.0,0.194,0.002
09/07/2023,07:42:43,0.108,0.0,0.195,0.001
09/07/2023,07:43:44,0.120,0.0,0.197,0.002
09/07/2023,07:44:44,0.127,0.0,0.199,0.002
09/07/2023,07:45:44,0.128,0.0,0.201,0.002
09/07/2023,07:46:44,0.123,0.0,0.203,0.002
09/07/2023,07:47:43,0.114,0.0,0.205,0.002
09/07/2023,07:48:44,0.107,0.0,0.207,0.002
09/07/2023,07:49:44,0.103,0.0,0.209,0.002
09/07/2023,07:50:44,0.103,0.0,0.211,0.002
09/07/2023,07:51:44,0.105,0.0,0.212,0.001
09/07/2023,07:52:44,0.107,0.0,0.214,0.002
09/07/2023,07:53:44,0.115,0.0,0.216,0.002
09/07/2023,07:54:44,0.123,0.0,0.218,0.002
09/07/2023,07:55:44,0.131,0.0,0.22,0.002
09/07/2023,07:56:44,0.144,0.0,0.222,0.002
09/07/2023,07:57:44,0.159,0.0,0.225,0.003
09/07/2023,07:58:44,0.171,0.0,0.228,0.003
09/07/2023,07:59:44,0.181,0.0,0.231,0.003
09/07/2023,08:00:43,0.182,0.0,0.234,0.003
09/07/2023,08:01:44,0.171,0.0,0.237,0.003
09/07/2023,08:02:44,0.170,0.0,0.24,0.003
09/07/2023,08:03:44,0.183,0.0,0.243,0.003
09/07/2023,08:04:44,0.191,0.0,0.246,0.003
09/07/2023,08:05:44,0.192,0.0,0.249,0.003
09/07/2023,08:06:44,0.200,0.0,0.252,0.003
09/07/2023,08:07:44,0.209,0.0,0.255,0.003
09/07/2023,08:08:44,0.205,0.0,0.259,0.004
09/07/2023,08:09:44,0.200,0.0,0.262,0.003
09/07/2023,08:10:44,0.218,0.0,0.266,0.004
09/07/2023,08:11:43,0.243,1.0,0.27,0.004
09/07/2023,08:12:44,0.249,1.0,0.274,0.004
09/07/2023,08:13:44,0.234,1.0,0.278,0.004
09/07/2023,08:14:44,0.239,1.0,0.282,0.004
09/07/2023,08:15:44,0.263,1.0,0.286,0.004
09/07/2023,08:16:44,0.282,1.0,0.29,0.004
09/07/2023,08:17:44,0.293,1.0,0.295,0.005
09/07/2023,08:18:44,0.302,1.0,0.3,0.005
09/07/2023,08:19:44,0.291,1.0,0.305,0.005
09/07/2023,08:20:44,0.278,1.0,0.31,0.005
09/07/2023,08:21:44,0.287,1.0,0.315,0.005
09/07/2023,08:22:44,0.318,1.0,0.32,0.005
09/07/2023,08:23:44,0.361,1.0,0.325,0.005
09/07/2023,08:24:44,0.405,1.0,0.332,0.007
09/07/2023,08:25:44,0.436,1.0,0.339,0.007
09/07/2023,08:26:44,0.453,1.0,0.346,0.007
09/07/2023,08:27:44,0.460,1.0,0.354,0.008
09/07/2023,08:28:44,0.456,1.0,0.361,0.007
09/07/2023,08:29:44,0.451,1.0,0.369,0.008
09/07/2023,08:30:44,0.445,1.0,0.376,0.007
09/07/2023,08:31:44,0.443,1.0,0.384,0.008
09/07/2023,08:32:44,0.440,1.0,0.391,0.007
09/07/2023,08:33:44,0.439,1.0,0.399,0.008
09/07/2023,08:34:44,0.444,1.0,0.406,0.007
09/07/2023,08:35:44,0.461,1.0,0.413,0.007
09/07/2023,08:36:44,0.485,1.0,0.421,0.008
09/07/2023,08:37:43,0.523,1.0,0.43,0.009
09/07/2023,08:38:44,0.578,1.0,0.439,0.009
09/07/2023,08:39:44,0.623,1.0,0.449,0.01
09/07/2023,08:40:44,0.620,1.0,0.459,0.01
09/07/2023,08:41:44,0.621,1.0,0.47,0.011
09/07/2023,08:42:45,0.634,1.0,0.48,0.01
09/07/2023,08:43:43,0.624,1.0,0.491,0.011
09/07/2023,08:44:44,0.628,1.0,0.501,0.01
09/07/2023,08:45:44,0.635,1.0,0.512,0.011
09/07/2023,08:46:44,0.679,2.0,0.523,0.011
09/07/2023,08:47:44,0.699,2.0,0.534,0.011
09/07/2023,08:48:44,0.775,2.0,0.547,0.013
09/07/2023,08:49:44,0.721,2.0,0.559,0.012
09/07/2023,08:50:44,0.829,2.0,0.572,0.013
09/07/2023,08:51:44,0.716,2.0,0.585,0.013
09/07/2023,08:52:44,0.721,2.0,0.596,0.011
09/07/2023,08:53:45,0.692,2.0,0.608,0.012
09/07/2023,08:54:44,0.649,1.0,0.619,0.011
09/07/2023,08:55:44,0.624,1.0,0.63,0.011
09/07/2023,08:56:44,0.605,1.0,0.64,0.01
09/07/2023,08:57:44,0.570,1.0,0.65,0.01
09/07/2023,08:58:44,0.549,1.0,0.659,0.009
09/07/2023,08:59:44,0.539,1.0,0.668,0.009
09/07/2023,09:00:44,0.539,1.0,0.677,0.009
09/07/2023,09:01:43,0.541,1.0,0.686,0.009
09/07/2023,09:02:44,0.536,1.0,0.695,0.009
09/07/2023,09:03:44,0.533,1.0,0.704,0.009
09/07/2023,09:04:44,0.536,1.0,0.713,0.009
09/07/2023,09:05:44,0.538,1.0,0.722,0.009
09/07/2023,09:06:44,0.552,1.0,0.731,0.009
09/07/2023,09:07:48,0.619,1.0,0.741,0.01
09/07/2023,09:08:44,0.601,1.0,0.751,0.01
09/07/2023,09:09:44,0.609,1.0,0.761,0.01
09/07/2023,09:10:44,0.605,1.0,0.771,0.01
09/07/2023,09:11:44,0.590,1.0,0.781,0.01
09/07/2023,09:12:44,0.558,1.0,0.79,0.009
09/07/2023,09:13:44,0.525,1.0,0.799,0.009
09/07/2023,09:14:44,0.502,1.0,0.808,0.009
09/07/2023,09:15:44,0.496,1.0,0.816,0.008
09/07/2023,09:16:44,0.500,1.0,0.824,0.008
09/07/2023,09:17:44,0.509,1.0,0.833,0.009
09/07/2023,09:18:44,0.536,1.0,0.842,0.009
09/07/2023,09:19:44,0.552,1.0,0.851,0.009
09/07/2023,09:20:44,0.551,1.0,0.86,0.009
09/07/2023,09:21:44,0.558,1.0,0.869,0.009
09/07/2023,09:22:44,0.585,1.0,0.879,0.01
09/07/2023,09:23:44,0.647,1.0,0.889,0.01
09/07/2023,09:24:44,0.661,2.0,0.899,0.01
09/07/2023,09:25:44,0.803,2.0,0.911,0.012
09/07/2023,09:26:44,1.008,2.0,0.926,0.015
09/07/2023,09:27:44,0.894,2.0,0.941,0.015
09/07/2023,09:28:44,0.892,2.0,0.957,0.016
09/07/2023,09:29:44,0.796,2.0,0.971,0.014
09/07/2023,09:30:44,0.919,2.0,0.986,0.015
09/07/2023,09:31:44,1.057,2.0,1.002,0.016
09/07/2023,09:32:44,0.907,2.0,1.018,0.016
09/07/2023,09:33:43,0.863,2.0,1.032,0.014
09/07/2023,09:35:06,0.797,2.0,1.052,0.02
09/07/2023,09:36:45,0.779,2.0,1.075,0.023
09/07/2023,09:37:44,0.815,2.0,1.088,0.013
09/07/2023,09:38:44,0.845,2.0,1.102,0.014
09/07/2023,09:39:45,0.923,2.0,1.116,0.014
09/07/2023,09:40:44,1.067,2.0,1.133,0.017
09/07/2023,09:41:44,1.059,2.0,1.151,0.018
09/07/2023,09:42:44,1.137,3.0,1.169,0.018
09/07/2023,09:43:45,0.986,2.0,1.187,0.018
09/07/2023,09:44:44,1.235,3.0,1.206,0.019
09/07/2023,09:45:44,1.196,3.0,1.226,0.02
09/07/2023,09:46:44,1.264,3.0,1.245,0.019
09/07/2023,09:47:45,1.335,3.0,1.266,0.021
09/07/2023,09:48:44,1.252,3.0,1.289,0.023
09/07/2023,09:49:44,1.443,3.0,1.313,0.024
09/07/2023,09:50:44,1.556,4.0,1.337,0.024
09/07/2023,09:51:44,1.536,4.0,1.36,0.023
09/07/2023,09:52:45,1.254,3.0,1.383,0.023
09/07/2023,09:53:44,1.515,3.0,1.406,0.023
09/07/2023,09:54:44,1.333,3.0,1.43,0.024
09/07/2023,09:55:44,1.550,4.0,1.453,0.023
09/07/2023,09:56:44,1.345,3.0,1.477,0.024
09/07/2023,09:57:44,1.514,3.0,1.499,0.022
09/07/2023,09:58:44,1.203,3.0,1.521,0.022
09/07/2023,09:59:44,1.285,3.0,1.541,0.02